Location: Carrer del Canonge
(41.4901°N, 2.2931°E)
Time: 14:07:11
(UTC+00:00)

USA 238 DEB - Pass Details

Date: 18 September 2020
Orbit: 1004 x 1208 km, 63.4° (Epoch: 28 October)

Event Time Altitude Azimuth Distance (km) Brightness Sun altitude
Rises 19:32:57 0° 327° (NNW) 3,946 7.5 -18.9°
Reaches altitude 10° 19:35:41 10° 332° (NNW) 3,014 6.7 -19.4°
Maximum altitude 19:42:44 53° 48° (NE) 1,407 4.1 -20.6°
Enters shadow 19:45:40 35° 104° (ESE) 1,808 4.3 -21.1°
